�������l�o���
Date,Time,MP-1(��Sv/h),MP-2(��Sv/h),MP-3(��Sv/h),MP-4(��Sv/h),MP-5(��Sv/h),MP-6(��Sv/h),MP-7(��Sv/h),MP-8(��Sv/h),����,����(m/s),���J
2023/12/29,00:00,0.519,0.787,0.491,0.992,0.709,0.316,0.562,0.527,�쐼,3.0,��
2023/12/29,00:10,0.518,0.787,0.490,0.992,0.709,0.316,0.564,0.527,�쐼,2.6,��
2023/12/29,00:20,0.519,0.788,0.491,0.996,0.709,0.316,0.563,0.527,�쐼,2.6,��
2023/12/29,00:30,0.521,0.789,0.491,0.992,0.709,0.316,0.564,0.528,�쐼,3.0,��
2023/12/29,00:40,0.521,0.788,0.492,0.994,0.707,0.315,0.563,0.527,��쐼,2.9,��
2023/12/29,00:50,0.519,0.786,0.490,0.990,0.708,0.316,0.564,0.529,�쐼,2.3,��
2023/12/29,01:00,0.519,0.788,0.492,0.994,0.708,0.314,0.564,0.526,��쐼,2.2,��
2023/12/29,01:10,0.520,0.787,0.491,0.992,0.709,0.317,0.564,0.528,��쐼,2.6,��
2023/12/29,01:20,0.519,0.788,0.491,0.994,0.709,0.315,0.564,0.528,��쐼,1.9,��
2023/12/29,01:30,0.520,0.787,0.492,0.994,0.709,0.315,0.564,0.528,�쐼,1.2,��
2023/12/29,01:40,0.520,0.788,0.491,0.993,0.709,0.315,0.564,0.529,�쐼,1.2,��
2023/12/29,01:50,0.519,0.789,0.490,0.993,0.708,0.316,0.563,0.530,�쐼,1.2,��
2023/12/29,02:00,0.521,0.787,0.492,0.994,0.709,0.316,0.565,0.528,��쐼,1.5,��
2023/12/29,02:10,0.521,0.788,0.490,0.993,0.710,0.317,0.564,0.529,��,2.2,��
2023/12/29,02:20,0.520,0.789,0.492,0.992,0.710,0.316,0.565,0.527,��,2.3,��
2023/12/29,02:30,0.519,0.785,0.491,0.993,0.708,0.316,0.564,0.527,��쓌,1.9,��
2023/12/29,02:40,0.520,0.788,0.491,0.994,0.708,0.316,0.565,0.528,��쓌,1.2,��
2023/12/29,02:50,0.519,0.789,0.490,0.994,0.708,0.316,0.563,0.528,��쓌,1.5,��
2023/12/29,03:00,0.519,0.788,0.491,0.993,0.709,0.316,0.563,0.528,��쐼,1.5,��
2023/12/29,03:10,0.520,0.789,0.491,0.996,0.711,0.316,0.565,0.528,�쐼,1.4,��
2023/12/29,03:20,0.520,0.789,0.491,0.992,0.709,0.315,0.564,0.527,�쐼,2.0,��
2023/12/29,03:30,0.520,0.788,0.492,0.992,0.709,0.315,0.564,0.527,��쐼,2.6,��
2023/12/29,03:40,0.519,0.788,0.490,0.993,0.708,0.315,0.564,0.529,�쐼,3.3,��
2023/12/29,03:50,0.520,0.786,0.490,0.992,0.710,0.316,0.564,0.529,�쐼,4.6,��
2023/12/29,04:00,0.520,0.787,0.490,0.994,0.710,0.316,0.564,0.528,�쐼,5.6,��
2023/12/29,04:10,0.520,0.785,0.492,0.993,0.708,0.316,0.563,0.527,���쐼,5.7,��
2023/12/29,04:20,0.520,0.787,0.492,0.993,0.708,0.316,0.564,0.527,�쐼,5.5,��
2023/12/29,04:30,0.520,0.787,0.492,0.993,0.708,0.315,0.563,0.528,��,4.5,��
2023/12/29,04:40,0.519,0.788,0.490,0.995,0.706,0.316,0.565,0.528,���쐼,3.5,��
2023/12/29,04:50,0.520,0.786,0.490,0.994,0.709,0.316,0.563,0.528,��,4.7,��
2023/12/29,05:00,0.520,0.788,0.491,0.993,0.707,0.317,0.564,0.529,��,7.3,��
2023/12/29,05:10,0.519,0.786,0.491,0.995,0.710,0.315,0.564,0.528,��,6.8,��
2023/12/29,05:20,0.519,0.788,0.491,0.994,0.708,0.317,0.563,0.528,���쐼,6.7,��
2023/12/29,05:30,0.520,0.788,0.491,0.993,0.709,0.316,0.566,0.528,��,7.4,��
2023/12/29,05:40,0.520,0.786,0.492,0.995,0.708,0.316,0.564,0.528,��,5.6,��
2023/12/29,05:50,0.521,0.786,0.492,0.995,0.708,0.316,0.565,0.528,�k��,6.5,��
2023/12/29,06:00,0.520,0.788,0.491,0.993,0.709,0.317,0.567,0.527,���k��,5.3,��
2023/12/29,06:10,0.521,0.787,0.492,0.994,0.709,0.315,0.565,0.529,��,6.3,��
2023/12/29,06:20,0.520,0.786,0.491,0.994,0.709,0.316,0.565,0.528,���k��,5.0,��
2023/12/29,06:30,0.520,0.788,0.490,0.994,0.707,0.316,0.564,0.527,���k��,2.3,��
2023/12/29,06:40,0.520,0.787,0.491,0.995,0.709,0.316,0.565,0.528,�k��,1.5,��
2023/12/29,06:50,0.520,0.788,0.491,0.995,0.710,0.315,0.565,0.530,�k��,3.8,��
2023/12/29,07:00,0.519,0.787,0.492,0.995,0.709,0.317,0.566,0.529,���k��,4.6,��
2023/12/29,07:10,0.520,0.788,0.493,0.994,0.709,0.315,0.564,0.527,���k��,6.5,��
2023/12/29,07:20,0.521,0.788,0.492,0.995,0.708,0.316,0.563,0.529,���k��,5.5,��
2023/12/29,07:30,0.519,0.788,0.492,0.994,0.707,0.315,0.564,0.527,���k��,6.1,��
2023/12/29,07:40,0.520,0.788,0.492,0.994,0.707,0.315,0.564,0.529,���k��,4.7,��
2023/12/29,07:50,0.520,0.787,0.492,0.994,0.709,0.317,0.564,0.528,�k��,4.0,��
2023/12/29,08:00,0.521,0.789,0.492,0.995,0.708,0.316,0.564,0.528,���k��,4.3,��
2023/12/29,08:10,0.520,0.789,0.493,0.994,0.708,0.316,0.565,0.529,���k��,2.8,��
2023/12/29,08:20,0.521,0.789,0.491,0.994,0.709,0.317,0.565,0.529,�k��,3.0,��
2023/12/29,08:30,0.521,0.787,0.491,0.995,0.707,0.316,0.566,0.528,���k��,4.9,��
2023/12/29,08:40,0.520,0.788,0.492,0.993,0.709,0.317,0.566,0.528,���k��,6.6,��
2023/12/29,08:50,0.520,0.788,0.492,0.995,0.710,0.316,0.564,0.529,��,4.8,��
2023/12/29,09:00,0.520,0.788,0.491,0.993,0.710,0.316,0.566,0.529,��,4.4,��
2023/12/29,09:10,0.520,0.790,0.492,0.995,0.709,0.315,0.564,0.528,��,5.1,��
2023/12/29,09:20,0.518,0.790,0.493,0.995,0.710,0.316,0.564,0.528,��,3.8,��
2023/12/29,09:30,0.522,0.789,0.491,0.995,0.710,0.316,0.565,0.528,��,2.2,��
2023/12/29,09:40,0.519,0.788,0.492,0.997,0.711,0.316,0.564,0.528,���쐼,4.6,��
2023/12/29,09:50,0.522,0.790,0.493,0.995,0.709,0.316,0.564,0.529,��,4.9,��
2023/12/29,10:00,0.521,0.789,0.492,0.995,0.709,0.316,0.564,0.529,��,2.9,��
2023/12/29,10:10,0.521,0.789,0.490,0.993,0.710,0.317,0.564,0.530,���쐼,2.0,��
2023/12/29,10:20,0.519,0.788,0.493,0.995,0.709,0.317,0.563,0.529,���쐼,4.3,��
2023/12/29,10:30,0.521,0.788,0.493,0.994,0.710,0.317,0.564,0.530,��,4.4,��
2023/12/29,10:40,0.521,0.789,0.492,0.995,0.709,0.317,0.564,0.529,���k��,4.8,��
2023/12/29,10:50,0.520,0.786,0.492,0.996,0.711,0.317,0.563,0.530,���k��,3.6,��
2023/12/29,11:00,0.519,0.788,0.494,0.994,0.713,0.317,0.564,0.529,��,4.7,��
2023/12/29,11:10,0.521,0.787,0.492,0.996,0.711,0.316,0.565,0.530,���k��,5.8,��
2023/12/29,11:20,0.520,0.786,0.494,0.996,0.710,0.316,0.564,0.530,���k��,6.0,��
2023/12/29,11:30,0.519,0.786,0.493,0.998,0.711,0.316,0.565,0.529,���k��,6.5,��
2023/12/29,11:40,0.520,0.786,0.493,0.997,0.711,0.317,0.564,0.529,���k��,6.6,��
2023/12/29,11:50,0.520,0.785,0.494,0.996,0.710,0.317,0.564,0.529,���k��,7.5,��
2023/12/29,12:00,0.522,0.785,0.493,0.997,0.711,0.316,0.565,0.530,���k��,5.5,��
2023/12/29,12:10,0.519,0.786,0.493,0.995,0.713,0.317,0.564,0.529,��,4.5,��
2023/12/29,12:20,0.520,0.786,0.493,0.994,0.711,0.317,0.565,0.529,��,4.8,��
2023/12/29,12:30,0.520,0.789,0.491,0.996,0.712,0.317,0.566,0.531,��,4.7,��
2023/12/29,12:40,0.520,0.788,0.493,0.999,0.711,0.317,0.567,0.531,���k��,6.8,��
2023/12/29,12:50,0.520,0.788,0.493,0.996,0.712,0.318,0.565,0.529,���k��,5.1,��
2023/12/29,13:00,0.519,0.785,0.492,0.995,0.711,0.319,0.568,0.530,���k��,4.4,��
2023/12/29,13:10,0.519,0.785,0.493,0.996,0.713,0.317,0.567,0.529,��,4.5,��
2023/12/29,13:20,0.519,0.790,0.492,0.998,0.712,0.318,0.565,0.528,��,6.6,��
2023/12/29,13:30,0.518,0.786,0.492,0.997,0.714,0.318,0.566,0.529,���쐼,5.8,��
2023/12/29,13:40,0.520,0.789,0.492,0.997,0.712,0.318,0.567,0.529,��,6.7,��
2023/12/29,13:50,0.519,0.788,0.492,0.996,0.713,0.317,0.566,0.529,��,7.0,��
2023/12/29,14:00,0.520,0.786,0.492,0.998,0.714,0.317,0.568,0.528,��,6.7,��
2023/12/29,14:10,0.520,0.785,0.491,0.996,0.712,0.318,0.565,0.528,��,8.0,��
2023/12/29,14:20,0.519,0.788,0.492,0.998,0.713,0.318,0.566,0.529,���k��,6.7,��
2023/12/29,14:30,0.519,0.787,0.492,0.995,0.711,0.317,0.567,0.529,��,5.1,��
2023/12/29,14:40,0.520,0.786,0.494,0.997,0.713,0.318,0.567,0.529,��,6.7,��
2023/12/29,14:50,0.520,0.785,0.492,0.997,0.711,0.317,0.567,0.529,��,7.1,��
2023/12/29,15:00,0.522,0.789,0.492,0.999,0.713,0.317,0.566,0.530,��,6.1,��
2023/12/29,15:10,0.521,0.790,0.493,0.998,0.712,0.316,0.567,0.533,��,6.5,��
2023/12/29,15:20,0.519,0.790,0.493,0.999,0.712,0.318,0.567,0.531,��,6.0,��
2023/12/29,15:30,0.520,0.789,0.492,0.997,0.712,0.317,0.566,0.531,��,5.6,��
2023/12/29,15:40,0.519,0.789,0.492,0.998,0.711,0.317,0.565,0.530,��,4.9,��
2023/12/29,15:50,0.520,0.790,0.494,0.994,0.712,0.317,0.568,0.529,��,5.6,��
2023/12/29,16:00,0.519,0.791,0.493,0.996,0.712,0.317,0.567,0.531,��,5.0,��
2023/12/29,16:10,0.522,0.790,0.494,0.997,0.711,0.317,0.566,0.531,��,5.5,��
2023/12/29,16:20,0.521,0.790,0.492,0.996,0.710,0.318,0.567,0.532,��,5.4,��
2023/12/29,16:30,0.522,0.790,0.492,0.995,0.712,0.317,0.568,0.531,��,5.3,��
2023/12/29,16:40,0.521,0.789,0.493,0.997,0.712,0.318,0.567,0.532,��,5.8,��
2023/12/29,16:50,0.522,0.789,0.494,0.998,0.711,0.317,0.568,0.530,��,5.4,��
2023/12/29,17:00,0.521,0.789,0.491,0.996,0.714,0.316,0.568,0.530,���쐼,5.3,��
2023/12/29,17:10,0.523,0.790,0.492,0.998,0.713,0.316,0.567,0.529,��,7.6,��
2023/12/29,17:20,0.521,0.790,0.492,0.995,0.712,0.316,0.566,0.530,��,7.1,��
2023/12/29,17:30,0.523,0.789,0.494,0.995,0.711,0.316,0.568,0.531,��,7.1,��
2023/12/29,17:40,0.523,0.789,0.492,0.997,0.711,0.316,0.566,0.530,��,6.0,��
2023/12/29,17:50,0.521,0.788,0.492,0.998,0.711,0.317,0.568,0.530,��,4.5,��
2023/12/29,18:00,0.522,0.789,0.493,0.996,0.713,0.317,0.565,0.529,���k��,4.6,��
2023/12/29,18:10,0.522,0.789,0.492,0.997,0.710,0.316,0.568,0.530,��,6.2,��
2023/12/29,18:20,0.520,0.788,0.492,0.996,0.711,0.317,0.569,0.531,��,7.2,��
2023/12/29,18:30,0.521,0.788,0.492,0.997,0.712,0.317,0.568,0.530,��,7.6,��
2023/12/29,18:40,0.521,0.789,0.492,0.996,0.712,0.315,0.566,0.530,��,7.8,��
2023/12/29,18:50,0.521,0.790,0.493,0.995,0.711,0.316,0.568,0.531,��,7.1,��
2023/12/29,19:00,0.522,0.790,0.492,0.999,0.711,0.317,0.567,0.530,��,7.2,��
2023/12/29,19:10,0.523,0.789,0.491,0.997,0.711,0.318,0.568,0.530,��,7.5,��
2023/12/29,19:20,0.521,0.789,0.492,0.996,0.712,0.317,0.568,0.531,��,7.8,��
2023/12/29,19:30,0.522,0.787,0.495,0.996,0.711,0.317,0.567,0.529,��,6.3,��
2023/12/29,19:40,0.520,0.789,0.492,0.995,0.713,0.317,0.569,0.530,��,7.4,��
2023/12/29,19:50,0.521,0.788,0.491,0.997,0.712,0.315,0.567,0.530,��,7.7,��
2023/12/29,20:00,0.521,0.788,0.494,0.997,0.711,0.317,0.567,0.531,��,8.9,��
2023/12/29,20:10,0.520,0.790,0.493,0.997,0.712,0.316,0.566,0.531,��,10.6,��
2023/12/29,20:20,0.521,0.790,0.492,0.998,0.712,0.315,0.567,0.530,��,9.9,��
2023/12/29,20:30,0.519,0.789,0.493,0.997,0.710,0.316,0.567,0.530,��,8.6,��
2023/12/29,20:40,0.519,0.788,0.492,0.998,0.712,0.317,0.569,0.532,��,8.7,��
2023/12/29,20:50,0.521,0.789,0.492,0.998,0.712,0.315,0.567,0.530,��,8.4,��
2023/12/29,21:00,0.521,0.790,0.493,0.995,0.711,0.316,0.567,0.532,��,7.3,��
2023/12/29,21:10,0.520,0.787,0.493,0.996,0.712,0.316,0.568,0.530,��,7.4,��
2023/12/29,21:20,0.520,0.787,0.492,0.997,0.710,0.318,0.568,0.529,��,7.1,��
2023/12/29,21:30,0.519,0.789,0.491,0.996,0.710,0.317,0.567,0.531,��,8.6,��
2023/12/29,21:40,0.520,0.788,0.493,0.996,0.711,0.316,0.567,0.530,��,9.3,��
2023/12/29,21:50,0.519,0.788,0.491,0.996,0.710,0.317,0.566,0.532,��,8.2,��
2023/12/29,22:00,0.519,0.790,0.491,0.995,0.710,0.316,0.568,0.530,��,10.7,��
2023/12/29,22:10,0.521,0.788,0.493,0.997,0.711,0.316,0.568,0.530,��,10.6,��
2023/12/29,22:20,0.521,0.789,0.492,0.996,0.713,0.317,0.569,0.531,��,8.4,��
2023/12/29,22:30,0.520,0.791,0.492,0.995,0.710,0.316,0.566,0.530,��,8.0,��
2023/12/29,22:40,0.520,0.789,0.492,0.997,0.712,0.316,0.566,0.530,��,8.6,��
2023/12/29,22:50,0.522,0.789,0.492,0.999,0.710,0.317,0.567,0.530,��,7.6,��
2023/12/29,23:00,0.521,0.789,0.492,0.998,0.711,0.317,0.567,0.532,��,8.4,��
2023/12/29,23:10,0.521,0.790,0.492,0.996,0.712,0.315,0.568,0.531,��,11.3,��
2023/12/29,23:20,0.521,0.787,0.493,0.996,0.711,0.316,0.568,0.531,��,10.2,��
2023/12/29,23:30,0.521,0.788,0.492,0.999,0.712,0.316,0.567,0.530,��,10.5,��
2023/12/29,23:40,0.521,0.788,0.491,0.999,0.710,0.316,0.567,0.530,��,9.9,��
2023/12/29,23:50,0.520,0.788,0.493,0.999,0.710,0.317,0.568,0.529,��,10.7,��
